Station Historical Data
Daily Summary for January 13, 2017 Units:  English    Metric   Both
« Previous Day
Next Day »
Daily Weekly Monthly Yearly Custom
  High: Low: Average:
Temperature: 71.6 °F 52.3 °F 60.1 °F
Dew Point: 60.7 °F 49.2 °F 54.7 °F
Humidity: 93% 65% 83%
Wind Speed: 10.4mph 10.4mph 10.4mph
Wind Gust: 10.4mph - -
Wind- - ESE
Pressure: 30.53 in 30.39 in -
Precipitation: 0.00 in    
Historical Graphs
 
 
Tabular Data for January 13, 2017
Time Temperature Dew Point Pressure Wind Wind Speed Wind Gust Humidity Rainfall Rate (Hourly) solar Conditions
00:05 54.1 °F 50.6 °F 30.39 in WNW 10.4 mph   88% 0.00 in 0.0 W/m2
00:10 53.9 °F 50.4 °F 30.39 in WNW 10.4 mph   88% 0.00 in 0.0 W/m2
00:15 53.7 °F 50.2 °F 30.39 in WNW 10.4 mph   88% 0.00 in 0.0 W/m2
00:20 53.4 °F 49.9 °F 30.39 in WNW 10.4 mph   88% 0.00 in 0.0 W/m2
00:25 53.2 °F 49.7 °F 30.39 in WNW 10.4 mph   88% 0.00 in 0.0 W/m2
00:30 53.0 °F 49.5 °F 30.39 in WNW 10.4 mph   88% 0.00 in 0.0 W/m2
00:35 52.8 °F 49.3 °F 30.39 in WNW 10.4 mph   88% 0.00 in 0.0 W/m2
00:40 52.9 °F 49.7 °F 30.39 in NNW 10.4 mph   89% 0.00 in 0.0 W/m2
00:45 52.3 °F 49.2 °F 30.39 in NNW 10.4 mph   89% 0.00 in 0.0 W/m2
00:50 52.5 °F 49.9 °F 30.39 in NNW 10.4 mph   91% 0.00 in 0.0 W/m2
00:55 52.5 °F 49.9 °F 30.39 in NNW 10.4 mph   91% 0.00 in 0.0 W/m2
01:00 52.5 °F 49.9 °F 30.39 in North 10.4 mph   91% 0.00 in 0.0 W/m2
01:05 52.5 °F 49.9 °F 30.39 in North 10.4 mph   91% 0.00 in 0.0 W/m2
01:11 52.5 °F 49.9 °F 30.39 in North 10.4 mph   91% 0.00 in 0.0 W/m2
01:16 52.5 °F 49.9 °F 30.39 in North 10.4 mph   91% 0.00 in 0.0 W/m2
01:21 52.5 °F 49.9 °F 30.39 in North 10.4 mph   91% 0.00 in 0.0 W/m2
01:26 52.5 °F 49.9 °F 30.39 in North 10.4 mph   91% 0.00 in 0.0 W/m2
01:31 52.5 °F 49.9 °F 30.39 in North 10.4 mph   91% 0.00 in 0.0 W/m2
01:36 52.5 °F 49.9 °F 30.39 in North 10.4 mph   91% 0.00 in 0.0 W/m2
01:41 52.5 °F 49.9 °F 30.39 in North 10.4 mph   91% 0.00 in 0.0 W/m2
01:46 52.5 °F 49.9 °F 30.39 in North 10.4 mph   91% 0.00 in 0.0 W/m2
01:51 52.5 °F 49.9 °F 30.39 in North 10.4 mph   91% 0.00 in 0.0 W/m2
01:56 52.5 °F 49.9 °F 30.39 in North 10.4 mph   91% 0.00 in 0.0 W/m2
02:02 52.5 °F 49.9 °F 30.40 in North 10.4 mph   91% 0.00 in 0.0 W/m2
02:07 52.5 °F 49.9 °F 30.40 in North 10.4 mph   91% 0.00 in 0.0 W/m2
02:12 52.5 °F 49.9 °F 30.40 in North 10.4 mph   91% 0.00 in 0.0 W/m2
02:17 52.5 °F 49.9 °F 30.40 in North 10.4 mph   91% 0.00 in 0.0 W/m2
02:22 52.5 °F 49.9 °F 30.40 in North 10.4 mph   91% 0.00 in 0.0 W/m2
02:27 52.5 °F 49.9 °F 30.40 in North 10.4 mph   91% 0.00 in 0.0 W/m2
02:32 52.5 °F 49.9 °F 30.40 in North 10.4 mph   91% 0.00 in 0.0 W/m2
02:37 52.5 °F 49.9 °F 30.40 in North 10.4 mph   91% 0.00 in 0.0 W/m2
02:42 52.5 °F 49.9 °F 30.40 in North 10.4 mph   91% 0.00 in 0.0 W/m2
02:43 52.5 °F 49.9 °F 30.40 in North 10.4 mph   91% 0.00 in 0.0 W/m2
02:48 52.5 °F 49.9 °F 30.40 in North 10.4 mph   91% 0.00 in 0.0 W/m2
02:53 52.5 °F 49.9 °F 30.40 in North 10.4 mph   91% 0.00 in 0.0 W/m2
02:58 52.5 °F 49.9 °F 30.40 in North 10.4 mph   91% 0.00 in 0.0 W/m2
03:03 52.5 °F 49.9 °F 30.40 in North 10.4 mph   91% 0.00 in 0.0 W/m2
03:08 52.5 °F 49.9 °F 30.40 in North 10.4 mph   91% 0.00 in 0.0 W/m2
03:13 52.5 °F 49.9 °F 30.41 in North 10.4 mph   91% 0.00 in 0.0 W/m2
03:18 52.5 °F 49.9 °F 30.41 in North 10.4 mph   91% 0.00 in 0.0 W/m2
03:23 52.5 °F 49.9 °F 30.41 in North 10.4 mph   91% 0.00 in 0.0 W/m2
03:28 52.5 °F 49.9 °F 30.41 in North 10.4 mph   91% 0.00 in 0.0 W/m2
03:33 52.5 °F 49.9 °F 30.41 in North 10.4 mph   91% 0.00 in 0.0 W/m2
03:38 52.5 °F 49.9 °F 30.41 in North 10.4 mph   91% 0.00 in 0.0 W/m2
03:43 52.5 °F 49.9 °F 30.41 in North 10.4 mph   91% 0.00 in 0.0 W/m2
03:48 52.5 °F 49.9 °F 30.41 in North 10.4 mph   91% 0.00 in 0.0 W/m2
03:53 52.5 °F 49.9 °F 30.41 in North 10.4 mph   91% 0.00 in 0.0 W/m2
03:58 52.5 °F 49.9 °F 30.41 in North 10.4 mph   91% 0.00 in 0.0 W/m2
04:04 52.5 °F 49.9 °F 30.41 in North 10.4 mph   91% 0.00 in 0.0 W/m2
04:09 52.5 °F 49.9 °F 30.41 in North 10.4 mph   91% 0.00 in 0.0 W/m2
04:14 52.5 °F 49.9 °F 30.42 in North 10.4 mph   91% 0.00 in 0.0 W/m2
04:19 52.5 °F 49.9 °F 30.42 in North 10.4 mph   91% 0.00 in 0.0 W/m2
04:24 52.5 °F 49.9 °F 30.42 in North 10.4 mph   91% 0.00 in 0.0 W/m2
04:29 52.5 °F 49.9 °F 30.42 in North 10.4 mph   91% 0.00 in 0.0 W/m2
04:34 52.5 °F 49.9 °F 30.42 in North 10.4 mph   91% 0.00 in 0.0 W/m2
04:39 52.5 °F 49.9 °F 30.42 in North 10.4 mph   91% 0.00 in 0.0 W/m2
04:44 52.5 °F 49.9 °F 30.42 in North 10.4 mph   91% 0.00 in 0.0 W/m2
04:49 52.5 °F 49.9 °F 30.41 in North 10.4 mph   91% 0.00 in 0.0 W/m2
04:54 52.5 °F 49.9 °F 30.42 in North 10.4 mph   91% 0.00 in 0.0 W/m2
05:00 52.5 °F 49.9 °F 30.41 in North 10.4 mph   91% 0.00 in 0.0 W/m2
05:05 52.5 °F 49.9 °F 30.41 in North 10.4 mph   91% 0.00 in 0.0 W/m2
05:10 52.5 °F 49.9 °F 30.41 in North 10.4 mph   91% 0.00 in 0.0 W/m2
05:15 52.5 °F 49.9 °F 30.42 in North 10.4 mph   91% 0.00 in 0.0 W/m2
05:20 52.5 °F 49.9 °F 30.42 in North 10.4 mph   91% 0.00 in 0.0 W/m2
05:25 52.5 °F 49.9 °F 30.42 in North 10.4 mph   91% 0.00 in 0.0 W/m2
05:30 52.5 °F 49.9 °F 30.42 in North 10.4 mph   91% 0.00 in 0.0 W/m2
05:35 52.5 °F 49.9 °F 30.43 in North 10.4 mph   91% 0.00 in 0.0 W/m2
05:40 52.5 °F 49.9 °F 30.43 in North 10.4 mph   91% 0.00 in 0.0 W/m2
05:45 52.5 °F 49.9 °F 30.43 in North 10.4 mph   91% 0.00 in 0.0 W/m2
05:50 52.5 °F 49.9 °F 30.43 in North 10.4 mph   91% 0.00 in 0.0 W/m2
05:55 52.5 °F 49.9 °F 30.43 in North 10.4 mph   91% 0.00 in 0.0 W/m2
06:00 52.5 °F 49.9 °F 30.44 in North 10.4 mph   91% 0.00 in 0.0 W/m2
06:05 52.5 °F 49.9 °F 30.44 in North 10.4 mph   91% 0.00 in 0.0 W/m2
06:11 52.5 °F 49.9 °F 30.44 in North 10.4 mph   91% 0.00 in 0.0 W/m2
06:16 52.5 °F 49.9 °F 30.44 in North 10.4 mph   91% 0.00 in 0.0 W/m2
06:21 52.5 °F 49.9 °F 30.45 in North 10.4 mph   91% 0.00 in 0.0 W/m2
06:26 52.5 °F 49.9 °F 30.45 in North 10.4 mph   91% 0.00 in 0.0 W/m2
06:31 52.5 °F 49.9 °F 30.45 in North 10.4 mph   91% 0.00 in 0.0 W/m2
06:36 52.5 °F 49.9 °F 30.45 in North 10.4 mph   91% 0.00 in 0.0 W/m2
06:41 52.5 °F 49.9 °F 30.46 in North 10.4 mph   91% 0.00 in 0.0 W/m2
06:46 52.5 °F 49.9 °F 30.46 in North 10.4 mph   91% 0.00 in 0.0 W/m2
06:51 52.5 °F 49.9 °F 30.46 in North 10.4 mph   91% 0.00 in 0.0 W/m2
06:56 52.5 °F 49.9 °F 30.46 in North 10.4 mph   91% 0.00 in 0.0 W/m2
07:01 52.5 °F 49.9 °F 30.46 in North 10.4 mph   91% 0.00 in 0.0 W/m2 CLR
07:06 52.5 °F 49.9 °F 30.46 in North 10.4 mph   91% 0.00 in 0.0 W/m2 CLR
07:11 52.5 °F 49.9 °F 30.46 in North 10.4 mph   91% 0.00 in 0.0 W/m2 CLR
07:16 52.5 °F 49.9 °F 30.47 in North 10.4 mph   91% 0.00 in 0.0 W/m2 CLR
07:21 52.5 °F 49.9 °F 30.47 in North 10.4 mph   91% 0.00 in 0.0 W/m2 CLR
07:26 52.5 °F 49.9 °F 30.47 in North 10.4 mph   91% 0.00 in 0.0 W/m2 CLR
07:32 52.5 °F 49.9 °F 30.47 in North 10.4 mph   91% 0.00 in 0.0 W/m2 CLR
07:37 52.5 °F 49.9 °F 30.47 in North 10.4 mph   91% 0.00 in 0.0 W/m2 CLR
07:42 52.5 °F 49.9 °F 30.47 in North 10.4 mph   91% 0.00 in 0.0 W/m2 CLR
07:47 52.5 °F 49.9 °F 30.48 in North 10.4 mph   91% 0.00 in 0.0 W/m2 CLR
07:52 52.5 °F 49.9 °F 30.47 in North 10.4 mph   91% 0.00 in 0.0 W/m2 CLR
07:57 52.5 °F 49.9 °F 30.48 in North 10.4 mph   91% 0.00 in 0.0 W/m2 CLR
08:02 52.5 °F 49.9 °F 30.48 in North 10.4 mph   91% 0.00 in 0.0 W/m2 CLR
08:07 52.5 °F 49.9 °F 30.48 in North 10.4 mph   91% 0.00 in 0.0 W/m2 CLR
08:12 52.5 °F 49.9 °F 30.48 in North 10.4 mph   91% 0.00 in 0.0 W/m2 CLR
08:17 52.5 °F 49.9 °F 30.48 in North 10.4 mph   91% 0.00 in 0.0 W/m2 CLR
08:23 52.5 °F 49.9 °F 30.49 in North 10.4 mph   91% 0.00 in 0.0 W/m2 CLR
08:28 52.5 °F 49.9 °F 30.49 in North 10.4 mph   91% 0.00 in 0.0 W/m2 CLR
08:33 52.5 °F 49.9 °F 30.49 in North 10.4 mph   91% 0.00 in 0.0 W/m2 CLR
08:38 52.5 °F 49.9 °F 30.49 in North 10.4 mph   91% 0.00 in 0.0 W/m2 CLR
08:43 52.5 °F 49.9 °F 30.49 in North 10.4 mph   91% 0.00 in 0.0 W/m2 CLR
08:48 52.5 °F 49.9 °F 30.49 in North 10.4 mph   91% 0.00 in 0.0 W/m2 CLR
08:53 52.5 °F 49.9 °F 30.50 in North 10.4 mph   91% 0.00 in 0.0 W/m2 CLR
08:58 52.5 °F 49.9 °F 30.50 in North 10.4 mph   91% 0.00 in 0.0 W/m2 CLR
09:03 52.5 °F 49.9 °F 30.50 in North 10.4 mph   91% 0.00 in 0.0 W/m2 OVC
09:08 56.0 °F 54.0 °F 30.50 in ENE 10.4 mph   93% 0.00 in 0.0 W/m2 OVC
09:13 56.5 °F 54.5 °F 30.50 in ENE 10.4 mph   93% 0.00 in 0.0 W/m2 OVC
09:19 56.6 °F 54.6 °F 30.50 in ENE 10.4 mph   93% 0.00 in 0.0 W/m2 OVC
09:24 56.9 °F 54.9 °F 30.51 in ENE 10.4 mph   93% 0.00 in 0.0 W/m2 OVC
09:29 57.2 °F 54.9 °F 30.51 in ENE 10.4 mph   92% 0.00 in 0.0 W/m2 OVC
09:34 57.7 °F 55.4 °F 30.51 in ENE 10.4 mph   92% 0.00 in 0.0 W/m2 OVC
09:39 58.2 °F 55.6 °F 30.51 in ENE 10.4 mph   91% 0.00 in 0.0 W/m2 OVC
09:44 58.7 °F 55.5 °F 30.51 in ENE 10.4 mph   89% 0.00 in 0.0 W/m2 OVC
09:49 59.2 °F 56.0 °F 30.52 in ENE 10.4 mph   89% 0.00 in 0.0 W/m2 OVC
09:54 59.7 °F 56.5 °F 30.52 in ENE 10.4 mph   89% 0.00 in 0.0 W/m2 OVC
09:59 60.3 °F 56.7 °F 30.52 in ENE 10.4 mph   88% 0.00 in 0.0 W/m2 OVC
10:04 60.7 °F 56.8 °F 30.52 in ENE 10.4 mph   87% 0.00 in 0.0 W/m2 OVC
10:09 61.2 °F 57.3 °F 30.52 in NNE 10.4 mph   87% 0.00 in 0.0 W/m2 OVC
10:14 61.7 °F 57.5 °F 30.52 in NNE 10.4 mph   86% 0.00 in 0.0 W/m2 OVC
10:19 62.1 °F 57.5 °F 30.52 in NNE 10.4 mph   85% 0.00 in 0.0 W/m2 OVC
10:24 62.6 °F 58.0 °F 30.52 in NNE 10.4 mph   85% 0.00 in 0.0 W/m2 OVC
10:29 63.1 °F 58.2 °F 30.52 in NNE 10.4 mph 10.4 mph 84% 0.00 in 0.0 W/m2 OVC
10:34 63.9 °F 58.6 °F 30.53 in North 10.4 mph   83% 0.00 in 0.0 W/m2 OVC
10:39 64.5 °F 58.5 °F 30.52 in North 10.4 mph   81% 0.00 in 0.0 W/m2 OVC
10:44 64.9 °F 58.6 °F 30.52 in ENE 10.4 mph 10.4 mph 80% 0.00 in 0.0 W/m2 OVC
10:50 65.2 °F 59.2 °F 30.52 in NNE 10.4 mph   81% 0.00 in 0.0 W/m2 OVC
10:55 65.9 °F 59.2 °F 30.52 in NNE 10.4 mph   79% 0.00 in 0.0 W/m2 OVC
11:00 66.3 °F 59.6 °F 30.52 in NNW 10.4 mph   79% 0.00 in 0.0 W/m2 OVC
11:05 66.6 °F 59.5 °F 30.52 in NNW 10.4 mph   78% 0.00 in 0.0 W/m2 OVC
11:10 67.1 °F 60.0 °F 30.52 in NNW 10.4 mph   78% 0.00 in 0.0 W/m2 OVC
11:15 67.6 °F 60.1 °F 30.52 in NNW 10.4 mph   77% 0.00 in 0.0 W/m2 OVC
11:20 67.9 °F 60.1 °F 30.52 in NNE 10.4 mph 10.4 mph 76% 0.00 in 0.0 W/m2 OVC
11:25 68.2 °F 60.0 °F 30.52 in North 10.4 mph 10.4 mph 75% 0.00 in 0.0 W/m2 OVC
11:30 68.6 °F 60.7 °F 30.51 in NW 10.4 mph 10.4 mph 76% 0.00 in 0.0 W/m2 OVC
11:35 68.9 °F 60.3 °F 30.51 in ENE 10.4 mph   74% 0.00 in 0.0 W/m2 OVC
11:40 68.8 °F 60.2 °F 30.51 in ENE 10.4 mph   74% 0.00 in 0.0 W/m2 OVC
11:45 69.0 °F 60.4 °F 30.51 in North 10.4 mph   74% 0.00 in 0.0 W/m2 OVC
11:50 69.3 °F 60.3 °F 30.51 in ENE 10.4 mph 10.4 mph 73% 0.00 in 0.0 W/m2 OVC
11:55 69.5 °F 60.1 °F 30.51 in NNE 10.4 mph 10.4 mph 72% 0.00 in 0.0 W/m2 OVC
12:00 69.3 °F 59.9 °F 30.50 in East 10.4 mph 10.4 mph 72% 0.00 in 0.0 W/m2 OVC
12:05 69.2 °F 60.2 °F 30.50 in WNW 10.4 mph   73% 0.00 in 0.0 W/m2 OVC
12:10 69.2 °F 59.8 °F 30.50 in East 10.4 mph 10.4 mph 72% 0.00 in 0.0 W/m2 OVC
12:15 69.2 °F 59.8 °F 30.50 in ENE 10.4 mph 10.4 mph 72% 0.00 in 0.0 W/m2 OVC
12:20 69.2 °F 59.8 °F 30.50 in East 10.4 mph 10.4 mph 72% 0.00 in 0.0 W/m2 OVC
12:25 69.3 °F 59.9 °F 30.49 in NW 10.4 mph   72% 0.00 in 0.0 W/m2 OVC
12:30 69.7 °F 59.9 °F 30.49 in ESE 10.4 mph 10.4 mph 71% 0.00 in 0.0 W/m2 OVC
12:35 69.7 °F 59.9 °F 30.49 in North 10.4 mph 10.4 mph 71% 0.00 in 0.0 W/m2 OVC
12:40 69.7 °F 59.5 °F 30.49 in NNW 10.4 mph   70% 0.00 in 0.0 W/m2 OVC
12:45 69.9 °F 59.7 °F 30.49 in North 10.4 mph 10.4 mph 70% 0.00 in 0.0 W/m2 OVC
12:50 69.8 °F 59.6 °F 30.48 in NNW 10.4 mph 10.4 mph 70% 0.00 in 0.0 W/m2 OVC
12:56 69.9 °F 59.7 °F 30.48 in SE 10.4 mph 10.4 mph 70% 0.00 in 0.0 W/m2 OVC
13:01 69.7 °F 59.5 °F 30.48 in SW 10.4 mph 10.4 mph 70% 0.00 in 0.0 W/m2 OVC
13:06 69.7 °F 59.5 °F 30.48 in ESE 10.4 mph 10.4 mph 70% 0.00 in 0.0 W/m2 OVC
13:11 69.7 °F 59.5 °F 30.48 in SE 10.4 mph 10.4 mph 70% 0.00 in 0.0 W/m2 OVC
13:16 69.6 °F 59.4 °F 30.48 in NNW 10.4 mph 10.4 mph 70% 0.00 in 0.0 W/m2 OVC
13:21 69.8 °F 59.6 °F 30.48 in NE 10.4 mph 10.4 mph 70% 0.00 in 0.0 W/m2 OVC
13:26 69.7 °F 59.5 °F 30.48 in East 10.4 mph 10.4 mph 70% 0.00 in 0.0 W/m2 OVC
13:31 69.7 °F 59.5 °F 30.47 in North 10.4 mph 10.4 mph 70% 0.00 in 0.0 W/m2 OVC
13:36 69.8 °F 59.6 °F 30.47 in ESE 10.4 mph 10.4 mph 70% 0.00 in 0.0 W/m2 OVC
13:41 69.8 °F 59.6 °F 30.47 in North 10.4 mph 10.4 mph 70% 0.00 in 0.0 W/m2 OVC
13:46 69.9 °F 59.7 °F 30.47 in SSE 10.4 mph 10.4 mph 70% 0.00 in 0.0 W/m2 OVC
13:51 69.8 °F 59.6 °F 30.47 in SW 10.4 mph   70% 0.00 in 0.0 W/m2 OVC
13:56 70.0 °F 59.8 °F 30.47 in WSW 10.4 mph 10.4 mph 70% 0.00 in 0.0 W/m2 OVC
14:01 70.2 °F 59.6 °F 30.47 in SSW 10.4 mph 10.4 mph 69% 0.00 in 0.0 W/m2 OVC
14:07 70.3 °F 60.1 °F 30.47 in ESE 10.4 mph   70% 0.00 in 0.0 W/m2 OVC
14:11 70.7 °F 60.0 °F 30.47 in ESE 10.4 mph   69% 0.00 in 0.0 W/m2 OVC
14:17 70.7 °F 59.6 °F 30.46 in SW 10.4 mph 10.4 mph 68% 0.00 in 0.0 W/m2 OVC
14:22 70.8 °F 59.7 °F 30.46 in SW 10.4 mph   68% 0.00 in 0.0 W/m2 OVC
14:27 70.8 °F 59.3 °F 30.46 in SSE 10.4 mph 10.4 mph 67% 0.00 in 0.0 W/m2 OVC
14:32 70.6 °F 59.5 °F 30.46 in WNW 10.4 mph   68% 0.00 in 0.0 W/m2 OVC
14:37 70.9 °F 59.8 °F 30.46 in NE 10.4 mph 10.4 mph 68% 0.00 in 0.0 W/m2 OVC
14:42 71.1 °F 60.0 °F 30.46 in NE 10.4 mph 10.4 mph 68% 0.00 in 0.0 W/m2 OVC
14:47 71.0 °F 59.5 °F 30.46 in South 10.4 mph 10.4 mph 67% 0.00 in 0.0 W/m2 OVC
14:52 70.8 °F 59.3 °F 30.46 in SSE 10.4 mph   67% 0.00 in 0.0 W/m2 OVC
14:57 70.9 °F 59.4 °F 30.46 in SSE 10.4 mph 10.4 mph 67% 0.00 in 0.0 W/m2 OVC
15:02 71.1 °F 60.0 °F 30.46 in SSE 10.4 mph   68% 0.00 in 0.0 W/m2 OVC
15:07 71.2 °F 59.7 °F 30.46 in NNE 10.4 mph 10.4 mph 67% 0.00 in 0.0 W/m2 OVC
15:12 71.1 °F 59.6 °F 30.46 in SW 10.4 mph 10.4 mph 67% 0.00 in 0.0 W/m2 OVC
15:17 71.0 °F 59.5 °F 30.46 in WNW 10.4 mph 10.4 mph 67% 0.00 in 0.0 W/m2 OVC
15:22 71.0 °F 59.5 °F 30.46 in North 10.4 mph   67% 0.00 in 0.0 W/m2 OVC
15:27 71.4 °F 59.4 °F 30.46 in ENE 10.4 mph 10.4 mph 66% 0.00 in 0.0 W/m2 OVC
15:32 71.3 °F 59.4 °F 30.46 in SW 10.4 mph 10.4 mph 66% 0.00 in 0.0 W/m2 OVC
15:37 71.4 °F 59.4 °F 30.46 in East 10.4 mph 10.4 mph 66% 0.00 in 0.0 W/m2 OVC
15:42 71.6 °F 59.6 °F 30.46 in SSE 10.4 mph   66% 0.00 in 0.0 W/m2 OVC
15:47 71.3 °F 59.4 °F 30.46 in ENE 10.4 mph   66% 0.00 in 0.0 W/m2 OVC
15:53 71.2 °F 59.3 °F 30.46 in SSE 10.4 mph 10.4 mph 66% 0.00 in 0.0 W/m2 OVC
15:58 70.9 °F 59.4 °F 30.46 in East 10.4 mph 10.4 mph 67% 0.00 in 0.0 W/m2 OVC
16:03 70.8 °F 59.3 °F 30.46 in SSW 10.4 mph 10.4 mph 67% 0.00 in 0.0 W/m2 CLR
16:08 70.7 °F 59.2 °F 30.46 in SE 10.4 mph 10.4 mph 67% 0.00 in 0.0 W/m2 CLR
16:13 70.8 °F 59.3 °F 30.46 in ESE 10.4 mph   67% 0.00 in 0.0 W/m2 CLR
16:18 70.8 °F 59.3 °F 30.46 in ESE 10.4 mph   67% 0.00 in 0.0 W/m2 CLR
16:23 70.9 °F 59.0 °F 30.46 in West 10.4 mph   66% 0.00 in 0.0 W/m2 CLR
16:28 70.9 °F 59.4 °F 30.46 in WNW 10.4 mph 10.4 mph 67% 0.00 in 0.0 W/m2 CLR
16:33 70.7 °F 58.8 °F 30.46 in NW 10.4 mph   66% 0.00 in 0.0 W/m2 CLR
16:38 70.8 °F 58.9 °F 30.46 in NW 10.4 mph   66% 0.00 in 0.0 W/m2 CLR
16:43 70.7 °F 58.4 °F 30.46 in ESE 10.4 mph 10.4 mph 65% 0.00 in 0.0 W/m2 CLR
16:48 70.6 °F 59.1 °F 30.46 in East 10.4 mph 10.4 mph 67% 0.00 in 0.0 W/m2 CLR
16:53 70.5 °F 59.0 °F 30.47 in ENE 10.4 mph 10.4 mph 67% 0.00 in 0.0 W/m2 CLR
16:59 70.4 °F 59.3 °F 30.47 in SSE 10.4 mph   68% 0.00 in 0.0 W/m2 CLR
17:04 70.2 °F 59.6 °F 30.47 in SSE 10.4 mph   69% 0.00 in 0.0 W/m2 CLR
17:09 70.1 °F 59.5 °F 30.47 in SSE 10.4 mph   69% 0.00 in 0.0 W/m2 CLR
17:14 69.9 °F 59.7 °F 30.47 in SSE 10.4 mph   70% 0.00 in 0.0 W/m2 CLR
17:19 69.6 °F 59.4 °F 30.47 in SSE 10.4 mph   70% 0.00 in 0.0 W/m2 CLR
17:24 69.3 °F 59.1 °F 30.47 in SSE 10.4 mph   70% 0.00 in 0.0 W/m2 CLR
17:29 69.0 °F 59.2 °F 30.47 in SSE 10.4 mph   71% 0.00 in 0.0 W/m2 CLR
17:34 68.4 °F 59.0 °F 30.47 in SSE 10.4 mph   72% 0.00 in 0.0 W/m2 CLR
17:39 68.0 °F 59.0 °F 30.47 in SSE 10.4 mph   73% 0.00 in 0.0 W/m2 CLR
17:44 67.5 °F 58.9 °F 30.47 in SSE 10.4 mph   74% 0.00 in 0.0 W/m2 CLR
17:49 67.0 °F 58.4 °F 30.47 in SSE 10.4 mph   74% 0.00 in 0.0 W/m2 CLR
17:54 66.6 °F 58.4 °F 30.47 in SSE 10.4 mph   75% 0.00 in 0.0 W/m2 CLR
17:59 66.2 °F 58.0 °F 30.47 in SSE 10.4 mph   75% 0.00 in 0.0 W/m2 CLR
18:05 65.8 °F 58.0 °F 30.47 in SSE 10.4 mph   76% 0.00 in 0.0 W/m2
18:10 65.3 °F 57.5 °F 30.47 in SSE 10.4 mph   76% 0.00 in 0.0 W/m2
18:15 64.9 °F 57.5 °F 30.47 in SSE 10.4 mph   77% 0.00 in 0.0 W/m2
18:20 64.4 °F 57.4 °F 30.47 in SSE 10.4 mph   78% 0.00 in 0.0 W/m2
18:25 64.1 °F 57.5 °F 30.48 in SSE 10.4 mph   79% 0.00 in 0.0 W/m2
18:30 63.8 °F 57.2 °F 30.48 in SSE 10.4 mph   79% 0.00 in 0.0 W/m2
18:35 63.6 °F 57.0 °F 30.48 in SSE 10.4 mph   79% 0.00 in 0.0 W/m2
18:40 63.3 °F 57.0 °F 30.48 in SSE 10.4 mph   80% 0.00 in 0.0 W/m2
18:45 63.2 °F 56.9 °F 30.48 in SSE 10.4 mph   80% 0.00 in 0.0 W/m2
18:50 63.0 °F 56.7 °F 30.48 in SSE 10.4 mph   80% 0.00 in 0.0 W/m2
18:55 62.8 °F 56.9 °F 30.48 in SSE 10.4 mph   81% 0.00 in 0.0 W/m2
19:00 62.6 °F 56.7 °F 30.48 in SSE 10.4 mph   81% 0.00 in 0.0 W/m2
19:06 62.4 °F 56.5 °F 30.48 in SSE 10.4 mph   81% 0.00 in 0.0 W/m2
19:11 62.2 °F 56.6 °F 30.49 in SSE 10.4 mph   82% 0.00 in 0.0 W/m2
19:16 62.0 °F 56.8 °F 30.49 in SSE 10.4 mph   83% 0.00 in 0.0 W/m2
19:21 62.1 °F 56.9 °F 30.49 in SSE 10.4 mph   83% 0.00 in 0.0 W/m2
19:26 62.3 °F 56.7 °F 30.49 in SSE 10.4 mph   82% 0.00 in 0.0 W/m2
19:31 62.1 °F 56.5 °F 30.49 in SSE 10.4 mph   82% 0.00 in 0.0 W/m2
19:36 61.9 °F 56.3 °F 30.49 in SSE 10.4 mph   82% 0.00 in 0.0 W/m2
19:41 61.7 °F 56.5 °F 30.49 in SSE 10.4 mph   83% 0.00 in 0.0 W/m2
19:46 61.4 °F 56.2 °F 30.49 in SSE 10.4 mph   83% 0.00 in 0.0 W/m2
19:51 61.2 °F 56.0 °F 30.49 in SSE 10.4 mph   83% 0.00 in 0.0 W/m2
19:56 60.9 °F 56.0 °F 30.49 in SSE 10.4 mph   84% 0.00 in 0.0 W/m2
20:01 60.6 °F 55.7 °F 30.49 in SSE 10.4 mph   84% 0.00 in 0.0 W/m2
20:06 60.3 °F 55.4 °F 30.49 in SSE 10.4 mph   84% 0.00 in 0.0 W/m2
20:11 60.1 °F 55.6 °F 30.49 in SSE 10.4 mph   85% 0.00 in 0.0 W/m2
20:16 59.8 °F 55.3 °F 30.50 in SSE 10.4 mph   85% 0.00 in 0.0 W/m2
20:22 59.7 °F 55.2 °F 30.49 in SSE 10.4 mph   85% 0.00 in 0.0 W/m2
20:27 59.6 °F 55.1 °F 30.50 in SSE 10.4 mph   85% 0.00 in 0.0 W/m2
20:32 59.4 °F 55.2 °F 30.50 in SSE 10.4 mph   86% 0.00 in 0.0 W/m2
20:37 59.2 °F 55.0 °F 30.50 in SSE 10.4 mph   86% 0.00 in 0.0 W/m2
20:42 59.0 °F 54.8 °F 30.50 in SSE 10.4 mph   86% 0.00 in 0.0 W/m2
20:47 59.0 °F 55.1 °F 30.50 in SSE 10.4 mph   87% 0.00 in 0.0 W/m2
20:52 59.1 °F 55.2 °F 30.50 in SSE 10.4 mph   87% 0.00 in 0.0 W/m2
20:57 59.1 °F 55.2 °F 30.50 in SSE 10.4 mph   87% 0.00 in 0.0 W/m2
21:02 59.1 °F 55.2 °F 30.50 in SSE 10.4 mph   87% 0.00 in 0.0 W/m2
21:07 59.0 °F 55.1 °F 30.49 in SSE 10.4 mph   87% 0.00 in 0.0 W/m2
21:12 58.9 °F 55.0 °F 30.50 in SSE 10.4 mph   87% 0.00 in 0.0 W/m2
21:18 58.9 °F 55.4 °F 30.50 in SSE 10.4 mph   88% 0.00 in 0.0 W/m2
21:23 58.9 °F 55.4 °F 30.50 in SSE 10.4 mph   88% 0.00 in 0.0 W/m2
21:28 59.0 °F 55.4 °F 30.49 in SSE 10.4 mph   88% 0.00 in 0.0 W/m2
21:33 59.1 °F 55.5 °F 30.49 in SSE 10.4 mph   88% 0.00 in 0.0 W/m2
21:38 59.1 °F 55.5 °F 30.49 in SSE 10.4 mph   88% 0.00 in 0.0 W/m2
21:43 59.2 °F 55.6 °F 30.50 in SSE 10.4 mph   88% 0.00 in 0.0 W/m2
21:48 59.3 °F 55.7 °F 30.50 in SSE 10.4 mph   88% 0.00 in 0.0 W/m2
21:53 59.3 °F 55.7 °F 30.50 in SSE 10.4 mph   88% 0.00 in 0.0 W/m2
21:58 59.1 °F 55.2 °F 30.50 in SSE 10.4 mph   87% 0.00 in 0.0 W/m2
22:03 59.0 °F 55.4 °F 30.50 in SSE 10.4 mph   88% 0.00 in 0.0 W/m2
22:08 59.1 °F 55.5 °F 30.50 in SSE 10.4 mph   88% 0.00 in 0.0 W/m2
22:13 59.1 °F 55.5 °F 30.50 in SSE 10.4 mph   88% 0.00 in 0.0 W/m2
22:18 59.1 °F 55.5 °F 30.50 in SSE 10.4 mph   88% 0.00 in 0.0 W/m2
22:23 58.9 °F 55.4 °F 30.50 in SSE 10.4 mph   88% 0.00 in 0.0 W/m2
22:28 58.8 °F 55.3 °F 30.50 in SSE 10.4 mph   88% 0.00 in 0.0 W/m2
22:33 58.7 °F 55.2 °F 30.50 in SSE 10.4 mph   88% 0.00 in 0.0 W/m2
22:38 58.7 °F 55.2 °F 30.50 in SSE 10.4 mph   88% 0.00 in 0.0 W/m2
22:43 58.5 °F 55.0 °F 30.50 in SSE 10.4 mph   88% 0.00 in 0.0 W/m2
22:48 58.2 °F 54.7 °F 30.50 in SSE 10.4 mph   88% 0.00 in 0.0 W/m2
22:53 58.0 °F 54.5 °F 30.50 in SSE 10.4 mph   88% 0.00 in 0.0 W/m2
22:59 57.8 °F 54.3 °F 30.49 in SSE 10.4 mph   88% 0.00 in 0.0 W/m2
23:04 57.7 °F 54.5 °F 30.50 in SSE 10.4 mph   89% 0.00 in 0.0 W/m2
23:09 57.5 °F 54.3 °F 30.49 in SSE 10.4 mph   89% 0.00 in 0.0 W/m2
23:14 57.3 °F 54.1 °F 30.49 in SSE 10.4 mph   89% 0.00 in 0.0 W/m2
23:19 57.2 °F 54.0 °F 30.49 in SSE 10.4 mph   89% 0.00 in 0.0 W/m2
23:24 57.0 °F 54.1 °F 30.49 in SSE 10.4 mph   90% 0.00 in 0.0 W/m2
23:29 56.9 °F 54.0 °F 30.49 in SSE 10.4 mph   90% 0.00 in 0.0 W/m2
23:34 56.7 °F 53.8 °F 30.49 in SSE 10.4 mph   90% 0.00 in 0.0 W/m2
23:39 56.5 °F 53.6 °F 30.49 in SSE 10.4 mph   90% 0.00 in 0.0 W/m2
23:44 56.4 °F 53.5 °F 30.48 in SSE 10.4 mph   90% 0.00 in 0.0 W/m2
23:49 56.4 °F 53.5 °F 30.49 in SSE 10.4 mph   90% 0.00 in 0.0 W/m2
23:54 56.2 °F 53.3 °F 30.49 in SSE 10.4 mph   90% 0.00 in 0.0 W/m2
23:59 56.0 °F 53.1 °F 30.48 in SSE 10.4 mph   90% 0.00 in 0.0 W/m2
Piedmont Bend
Compliments of Weather Underground - 4 mb